Weather History for KVBT - December, 2012

Change the Weather History Date:

Friday, December 7, 2012

  Actual Average (KFYV) Record (KFYV)
Temperature  
Mean Temperature 52 °F 39 °F  
Max Temperature 57 °F 50 °F 76 °F (1966)
Min Temperature 46 °F 29 °F -7 °F (1950)
Degree Days  
Heating Degree Days 14 26  
Month to date heating degree days 175  
Since 1 July heating degree days 1004  
Growing Degree Days 2 (Base 50)    
Moisture  
Dew Point 48 °F    
Average Humidity 84    
Maximum Humidity 93    
Minimum Humidity 72    
Precipitation  
Precipitation 0.00 in 0.11 in 0.61 in (1997)
Month to date precipitation 0.83  
Year to date precipitation 46.10  
Sea Level Pressure  
Sea Level Pressure 29.85 in    
Wind  
Wind Speed 2 mph (South)    
Max Wind Speed 7 mph    
Max Gust Speed -    
Visibility 8 miles    
Events      
T = Trace of Precipitation, MM = Missing Value Source: NWS Daily Summary

Daily Weather History Graph

Daily Weather History Graph

Search for Another Location

Airport or City:

Trip Planner

Search our weather history database for the weather conditions in past years. The results will help you decide how hot, cold, wet, or windy it might be!

Date:

Astronomy

Dec. 07, 2012 Rise Set
Actual Time 7:15 AM CST 5:01 PM CST
Civil Twilight 6:46 AM CST 5:30 PM CST
Nautical Twilight 6:14 AM CST 6:02 PM CST
Astronomical Twilight 5:43 AM CST 6:33 PM CST
Moon 12:45 AM CST (12/7) 12:50 PM CST (12/7)
Length of Visible Light 10h 43m
Length of Day
9h 46m
Last Quarter, 38% of the Moon is Illuminated
Dec 7
Last Quarter
Dec 13
New
Dec 19
First Quarter
Dec 28
Full
Jan 4
Last Quarter

Hourly Weather History & Observations

Time (CST) Temp. Dew Point Humidity Pressure Visibility Wind Dir Wind Speed Gust Speed Precip Events Conditions
12:15 AM 50.0 °F 44.6 °F 82% 29.88 in 10.0 mi South 5.8 mph - N/A   Clear
12:35 AM 48.2 °F 44.6 °F 87% 29.88 in 10.0 mi South 4.6 mph - N/A   Clear
12:55 AM 48.2 °F 44.6 °F 87% 29.87 in 10.0 mi SSE 3.5 mph - N/A   Partly Cloudy
1:16 AM 46.4 °F 44.6 °F 93% 29.87 in 10.0 mi Calm Calm - N/A   Mostly Cloudy
1:35 AM 46.4 °F 42.8 °F 87% 29.87 in 8.0 mi Calm Calm - N/A   Mostly Cloudy
1:55 AM 46.4 °F 44.6 °F 93% 29.87 in 7.0 mi Calm Calm - N/A   Overcast
2:15 AM 46.4 °F 44.6 °F 93% 29.88 in 7.0 mi Calm Calm - N/A   Overcast
2:36 AM 48.2 °F 44.6 °F 87% 29.88 in 9.0 mi Calm Calm - N/A   Overcast
2:55 AM 48.2 °F 44.6 °F 87% 29.88 in 10.0 mi Calm Calm - N/A   Overcast
3:15 AM 48.2 °F 44.6 °F 87% 29.87 in 10.0 mi Calm Calm - N/A   Overcast
3:55 AM 48.2 °F 44.6 °F 87% 29.86 in 8.0 mi Calm Calm - N/A   Overcast
4:15 AM 48.2 °F 44.6 °F 87% 29.86 in 8.0 mi Calm Calm - N/A   Overcast
4:35 AM 48.2 °F 44.6 °F 87% 29.86 in 8.0 mi SE 3.5 mph - N/A   Overcast
4:55 AM 48.2 °F 44.6 °F 87% 29.85 in 8.0 mi SE 3.5 mph - N/A   Overcast
5:15 AM 48.2 °F 44.6 °F 87% 29.85 in 8.0 mi Calm Calm - N/A   Overcast
5:35 AM 50.0 °F 46.4 °F 87% 29.86 in 10.0 mi Calm Calm - N/A   Overcast
6:15 AM 50.0 °F 46.4 °F 87% 29.86 in 10.0 mi Calm Calm - N/A   Overcast
6:35 AM 50.0 °F 46.4 °F 87% 29.86 in 10.0 mi Calm Calm - N/A   Overcast
6:56 AM 50.0 °F 46.4 °F 87% 29.86 in 10.0 mi ESE 3.5 mph - N/A   Overcast
7:15 AM 50.0 °F 46.4 °F 87% 29.87 in 10.0 mi Calm Calm - N/A   Overcast
7:35 AM 51.8 °F 46.4 °F 82% 29.87 in 9.0 mi Calm Calm - N/A   Overcast
7:56 AM 51.8 °F 46.4 °F 82% 29.87 in 9.0 mi Calm Calm - N/A   Overcast
8:15 AM 51.8 °F 46.4 °F 82% 29.87 in 9.0 mi Calm Calm - N/A   Overcast
8:35 AM 51.8 °F 46.4 °F 82% 29.87 in 9.0 mi Calm Calm - N/A   Overcast
8:56 AM 51.8 °F 46.4 °F 82% 29.88 in 9.0 mi Calm Calm - N/A   Overcast
9:15 AM 51.8 °F 46.4 °F 82% 29.88 in 8.0 mi Calm Calm - N/A   Overcast
9:35 AM 53.6 °F 46.4 °F 77% 29.89 in 9.0 mi Calm Calm - N/A   Overcast
10:15 AM 53.6 °F 48.2 °F 82% 29.88 in 8.0 mi SSE 4.6 mph - N/A   Overcast
10:35 AM 55.4 °F 48.2 °F 77% 29.87 in 9.0 mi South 3.5 mph - N/A   Overcast
10:55 AM 55.4 °F 48.2 °F 77% 29.87 in 8.0 mi South 3.5 mph - N/A   Overcast
11:35 AM 55.4 °F 48.2 °F 77% 29.85 in 8.0 mi Calm Calm - N/A   Overcast
11:55 AM 55.4 °F 48.2 °F 77% 29.84 in 8.0 mi South 3.5 mph - N/A   Overcast
12:15 PM 57.2 °F 48.2 °F 72% 29.83 in 8.0 mi South 3.5 mph - N/A   Overcast
12:35 PM 57.2 °F 50.0 °F 77% 29.82 in 8.0 mi South 3.5 mph - N/A   Overcast
12:55 PM 57.2 °F 50.0 °F 77% 29.82 in 9.0 mi SSW 4.6 mph - N/A   Overcast
1:15 PM 57.2 °F 50.0 °F 77% 29.81 in 9.0 mi SSW 4.6 mph - N/A   Overcast
1:55 PM 57.2 °F 50.0 °F 77% 29.80 in 5.0 mi SW 6.9 mph - N/A   Overcast
2:15 PM 55.4 °F 51.8 °F 88% 29.80 in 4.0 mi Calm Calm - N/A   Overcast
2:35 PM 57.2 °F 51.8 °F 82% 29.80 in 6.0 mi Calm Calm - N/A   Overcast
2:56 PM 57.2 °F 51.8 °F 82% 29.80 in 8.0 mi Calm Calm - N/A   Overcast
3:15 PM 57.2 °F 51.8 °F 82% 29.80 in 9.0 mi Calm Calm - N/A   Overcast
3:35 PM 57.2 °F 51.8 °F 82% 29.80 in 9.0 mi Calm Calm - N/A   Overcast
4:15 PM 57.2 °F 51.8 °F 82% 29.81 in 10.0 mi Calm Calm - N/A   Overcast
4:35 PM 57.2 °F 51.8 °F 82% 29.81 in 9.0 mi Calm Calm - N/A   Overcast
4:55 PM 57.2 °F 51.8 °F 82% 29.81 in 8.0 mi Calm Calm - N/A   Overcast
5:35 PM 55.4 °F 51.8 °F 88% 29.82 in 9.0 mi Calm Calm - N/A   Overcast
5:55 PM 55.4 °F 50.0 °F 82% 29.82 in 8.0 mi Calm Calm - N/A   Overcast
6:15 PM 55.4 °F 51.8 °F 88% 29.83 in 8.0 mi Calm Calm - N/A   Overcast
6:35 PM 55.4 °F 50.0 °F 82% 29.83 in 8.0 mi Calm Calm - N/A   Overcast
6:55 PM 55.4 °F 50.0 °F 82% 29.83 in 8.0 mi Calm Calm - N/A   Overcast
7:15 PM 55.4 °F 50.0 °F 82% 29.83 in 8.0 mi Calm Calm - N/A   Overcast
7:55 PM 53.6 °F 50.0 °F 88% 29.84 in 7.0 mi Calm Calm - N/A   Overcast
8:15 PM 53.6 °F 50.0 °F 88% 29.84 in 7.0 mi Calm Calm - N/A   Overcast
8:36 PM 53.6 °F 50.0 °F 88% 29.84 in 7.0 mi Calm Calm - N/A   Overcast
8:55 PM 53.6 °F 50.0 °F 88% 29.85 in 5.0 mi Calm Calm - N/A   Overcast
9:15 PM 53.6 °F 50.0 °F 88% 29.85 in 7.0 mi Calm Calm - N/A   Overcast
9:55 PM 53.6 °F 50.0 °F 88% 29.86 in 5.0 mi Calm Calm - N/A   Overcast
10:15 PM 53.6 °F 48.2 °F 82% 29.86 in 5.0 mi Calm Calm - N/A   Overcast
10:55 PM 53.6 °F 50.0 °F 88% 29.87 in 5.0 mi Calm Calm - N/A   Overcast
11:15 PM 53.6 °F 50.0 °F 88% 29.87 in 5.0 mi Calm Calm - N/A   Overcast
11:35 PM 53.6 °F 50.0 °F 88% 29.87 in 4.0 mi Calm Calm - N/A   Overcast
11:56 PM 53.6 °F 50.0 °F 88% 29.88 in 3.0 mi Calm Calm - N/A   Overcast